Regional Weather Roundup
Issued by NWS

Home | Current Version | Previous Version | Text Only | Print | Product List | Glossary Off
Versions: 1 2 3 4 5 6 7 8 9 10 11 12 13 14 15 16 17 18 19 20 21 22 23 24 25 26 27 28 29 30 31 32 33 34 35 36 37 38 39 40 41 42 43 44 45 46 47 48 49 50

406
ASUS43 KTOP 291059
RWRKS

WEATHER ROUNDUP FOR KANSAS
NATIONAL WEATHER SERVICE GOODLAND KS
600 AM CDT MON MAY 29 2017

NOTE:  "FAIR" INDICATES FEW OR NO CLOUDS BELOW 12,000 FEET WITH NO
SIGNIFICANT WEATHER AND/OR OBSTRUCTIONS TO VISIBILITY.

KSZ001>006-013>018-027>032-041>047-291200-
NORTHWEST KANSAS

CITY           SKY/WX    TMP DP  RH WIND       PRES   REMARKS
GOODLAND       CLOUDY    48  45  89 NW8       30.14F
HAYS           CLEAR     52  49  89 W8        30.07S
HILL CITY      PTCLDY    51  48  89 W5        30.09S
RUSSELL        PTCLDY    55  51  86 CALM      30.04S
$$

KSZ061>065-074>080-084>089-291200-
SOUTHWEST KANSAS

CITY           SKY/WX    TMP DP  RH WIND       PRES   REMARKS
DODGE CITY     PTCLDY    51  44  77 NW9       30.09F
ELKHART          N/A     52  38  59 MISG        N/A
GARDEN CITY    CLEAR     50  43  77 NW13      30.12S
GREAT BEND     CLOUDY    55  50  83 NW7       30.06S
LIBERAL        CLOUDY    53  48  83 NW8       30.14
$$

KSZ066>073-081>083-090>101-291200-
SOUTHEAST KANSAS

CITY           SKY/WX    TMP DP  RH WIND       PRES   REMARKS
CHANUTE        CLEAR     55  49  80 CALM      29.97F
COFFEYVILLE    PTCLDY    56  55  97 S5        29.98S
HUTCHINSON     CLOUDY    58  50  75 W7        30.02S
MEDICINE LODGE   N/A     50  45  83 N6        30.02F
NEWTON         MOCLDY    61  46  57 W9        30.02S
PARSONS        CLEAR     52  51  97 CALM      29.98F
WICHITA INTL   CLEAR     58  47  66 N6        30.00S
WICHITA JABRA  CLEAR     58  47  66 NW10      30.00S
WINFIELD       CLEAR     57  49  74 CALM      30.00F
$$

KSZ007>012-019>026-033>040-048>060-102>105-291200-
NORTHEAST KANSAS

CITY           SKY/WX    TMP DP  RH WIND       PRES   REMARKS
CONCORDIA      CLEAR     53  50  89 W8        30.02R
EMPORIA        CLEAR     60  48  64 W8        29.97F
LAWRENCE       PTCLDY    54  54 100 W6        29.94F
MANHATTAN      CLOUDY    56  54  93 CALM      29.98F
OLATHE IND     MOCLDY    59  52  77 S6        29.94F
OLATHE EXE     MOCLDY    56  53  90 S5        29.94F
SALINA         CLOUDY    60  52  74 W9        30.02S
TOPEKA BILLARD PTCLDY    58  54  86 W6        29.95S
TOPEKA FORBES  CLEAR     56  52  86 W5        29.95S
$$




USA.gov is the U.S. government's official web portal to all federal, state and local government web resources and services.